Tracking 31027 objects as of 19-Jul-2025
HD Live streaming from Space Station
objects crossing your sky now

CZ-4B R/B

Track CZ-4B R/B now!
10-day predictions


NORAD ID: 32959
Int'l Code: 2008-026B
Perigee: 707.1 km
Apogee: 805.5 km
Inclination: 98.9 °
Period: 99.8 minutes
Semi major axis: 7127 km
RCS: 9.0966 m2 (large)
Launch date: May 27, 2008
Source: People's Republic of China (PRC)
Launch site: Taiyaun Space Center, China (TSC)

Note: This is a ROCKET BODY
Your satellite tracking list
FREGAT DEB
Track 1 satellite(s)




NASA's NSSDC Master Catalog

Two Line Element Set (TLE):
1 32959U 08026B   25199.61286178  .00000128  00000-0  51748-4 0  9999
2 32959  98.9012 252.4437 0069041 182.7618 304.5404 14.42832531901978
Source of the keplerian elements: AFSPC